Regional Weather Roundup
Issued by NWS

Home | Current Version | Previous Version | Graphics & Text | Print | Product List | Glossary On
Versions: 1 2 3 4 5 6 7 8 9 10 11 12 13 14 15 16 17 18 19 20 21 22 23 24 25 26
268
ASUS45 KTFX 211510
RWRMT
MONTANA REGIONAL WEATHER ROUNDUP
NATIONAL WEATHER SERVICE GREAT FALLS MT
900 AM MDT THU MAY 21 2015

NOTE: "FAIR" INDICATES FEW OR NO CLOUDS BELOW 12000 FEET WITH NO
SIGNIFICANT WEATHER AND/OR OBSTRUCTIONS TO VISIBILITY.

MTZ001>007-043-211600-
WEST OF THE DIVIDE

CITY           SKY/WX    TMP DP  RH WIND       PRES   REMARKS
KALISPELL      SUNNY     58  34  40 NE13      29.99S
MISSOULA       SUNNY     55  34  45 W6        30.00F
BUTTE          PTSUNNY   50  35  56 S12       30.07S
MULLAN PASS    SUNNY     50  31  48 SE8       30.02S
DEER LODGE       N/A     55  39  54 SE7       30.07S
EUREKA           N/A     57  36  44 CALM      30.01F
HAMILTON         N/A     57  41  54 S2        29.99F
LIBBY            N/A     55  37  50 CALM      29.99F
RONAN            N/A     59  38  45 N7        30.02S
$$

MTZ008-052>055-211600-
SOUTHWEST MONTANA

CITY           SKY/WX    TMP DP  RH WIND       PRES   REMARKS
BOZEMAN        PTSUNNY   50  38  63 CALM      30.07F
DILLON         CLOUDY    49  41  74 NE6       30.05F
W YELLOWSTONE  CLOUDY    43  39  87 CALM      30.12S
TWIN BRIDGES     N/A     51  38  61 N10       30.04S
$$

MTZ009-010-012-014-046-048-049-054-211600-
EAST SLOPES AND CENTRAL MONTANA

CITY           SKY/WX    TMP DP  RH WIND       PRES   REMARKS
CUT BANK       SUNNY     46  32  58 SE3       30.07S
GREAT FALLS    SUNNY     52  36  54 VRB3      30.05F
MALMSTROM AFB  SUNNY     51  35  55 SE3       30.06F
HELENA         MOSUNNY   52  35  52 N5        30.06F
CONRAD           N/A     48  38  68 NE3       30.08S
$$

MTZ011-013-016-021-045-047-050-051-211600-
NORTH CENTRAL MONTANA

CITY           SKY/WX    TMP DP  RH WIND       PRES   REMARKS
HAVRE          SUNNY     59  32  36 SE14      30.09F
LEWISTOWN      SUNNY     52  36  54 E8        30.09F
N BAR RANCH    FAIR      48  37  66 E10       30.14F
CHINOOK          N/A     54  37  54 E9        30.12F
FORT BENTON      N/A     54  36  50 E7        30.08F
$$

MTZ017>020-022>027-061-062-211600-
NORTHEAST MONTANA

CITY           SKY/WX    TMP DP  RH WIND       PRES   REMARKS
GLASGOW        SUNNY     56  34  43 SE9       30.20S
JORDAN           N/A     56  35  45 SE15      30.18F
SIDNEY         SUNNY     54  37  54 CALM      30.24S
WOLF POINT     SUNNY     55  38  52 CALM      30.22F
MALTA            N/A     56  39  52 NE8       30.13S
PLENTYWOOD       N/A     59  37  44 W6        30.21S
POPLAR           N/A     57  36  44 CALM      30.23S VSB 1
$$

MTZ028>42-056>058-211600-
SOUTHCENTRAL AND SOUTHEAST MONTANA

CITY           SKY/WX    TMP DP  RH WIND       PRES   REMARKS
BAKER          SUNNY     55  36  48 CALM      30.25F
BILLINGS       MOSUNNY   49  37  63 NE6       30.13S
LIVINGSTON     MOSUNNY   47  38  71 NE5       30.10F
MILES CITY     SUNNY     54  35  48 SE12      30.20F
BIG TIMBER       N/A     46  37  71 NE5       30.13S
EKALAKA          N/A     53  32  45 E7        30.20S
FORSYTH          N/A     54  36  50 E12       30.18F
LAUREL           N/A     48  36  63 N2        30.10S
ROUNDUP          N/A     50  34  54 CALM      30.04F
$$

REGIONAL REPORTS...DAKOTAS

CITY           SKY/WX    TMP DP  RH WIND       PRES   REMARKS
WILLISTON      SUNNY     58  38  47 S3        30.22S
MINOT          SUNNY     58  36  43 NW6       30.17S
DICKINSON      SUNNY     59  35  40 W9        30.22S
BEACH          FAIR      57  34  41 W6        30.25S
CROSBY         FAIR      63  32  31 N15       30.20F
WATFORD CITY   FAIR      59  32  36 W7        30.21S
BISMARCK       SUNNY     63  36  36 VRB7      30.19F
GRAND FORKS    SUNNY     56  40  55 N6        30.15S
FARGO          SUNNY     57  41  55 N8        30.14R
BUFFALO SD       N/A     55  36  48 VRB3      30.18F
RAPID CITY     SUNNY     52  34  50 S8        30.26S
$$

REGIONAL REPORTS...WYOMING/IDAHO/WASHINGTON

CITY           SKY/WX    TMP DP  RH WIND       PRES   REMARKS
GILLETTE       SUNNY     46  36  68 S21       30.19F
SHERIDAN       SUNNY     49  38  65 VRB5      30.14F
BUFFALO WY       N/A     47  36  65 MISG      30.14F
CODY           MOSUNNY   46  43  87 CALM      30.12F
YELLOWSTONE LA   N/A     41  34  76 VRB5      30.18R
IDAHO FALLS    PTSUNNY   56  43  61 VRB3      30.05S
SALMON         CLOUDY    54  45  71 CALM      30.00S
BOISE          CLOUDY    60  47  61 CALM      29.93S
SPOKANE        PTSUNNY   64  49  57 SE6       29.90S
$$

REGIONAL REPORTS...ALBERTA

CITY           SKY/WX    TMP DP  RH WIND       PRES   REMARKS
CALGARY        MOSUNNY   52  32  46 S8        30.04F
MEDICINE HAT   SUNNY     59  34  38 CALM      30.10F
$$

REGIONAL REPORTS...SASKATCHEWAN

CITY           SKY/WX    TMP DP  RH WIND       PRES   REMARKS
REGINA         SUNNY     64  36  34 N8        30.19F
SASKATOON      MOSUNNY   61  32  33 CALM      30.19S
$$



USA.gov is the U.S. government's official web portal to all federal, state and local government web resources and services.